Theta_e
320 320 320 319 318 317 317 317 318 317 317 317 318 318 318 318 318 319 319 319 320 320 321 321 322 323 314 311 311 321 341 335 321 311 310 311 306 301 298 301 302 300 303 306 307 306 305
319 319 319 318 317 318 317 317 316 316 316 317 317 317 317 318 318 318 318 318 318 319 319 320 322 322 314 305 318 323 324 318 314 311 310 311 308 308 305 303 301 304 304 303 305 306 306
318 318 318 317 317 316 318 317 317 316 316 316 316 316 316 317 317 318 317 317 317 317 318 320 321 319 312 311 319 321 319 314 315 315 312 311 311 308 306 304 308 307 301 304 305 304 305
317 317 316 316 316 316 316 317 317 316 316 316 316 315 316 316 317 317 317 316 316 317 320 322 322 314 309 323 320 315 315 314 315 314 314 314 313 307 303 308 308 301 301 294 301 304 305
317 317 316 316 316 315 315 315 315 316 316 315 315 314 315 315 316 316 316 315 316 319 322 322 314 310 309 320 315 318 317 315 314 314 314 318 309 305 306 300 297 298 293 295 299 304 304
316 317 317 317 315 314 314 314 314 314 315 315 314 314 314 314 315 315 314 314 318 317 318 320 318 309 315 314 312 317 316 318 313 312 310 307 304 300 299 296 290 295 295 299 298 302 304
314 315 316 316 316 314 313 314 314 314 314 314 314 313 313 313 314 313 311 311 313 310 312 310 311 311 314 315 316 312 315 313 311 308 300 305 297 295 299 302 301 301 300 299 304 306 304
314 313 313 313 313 314 313 313 313 313 313 313 313 313 313 313 313 313 307 305 312 313 305 315 316 314 317 313 309 312 314 306 305 300 303 300 297 303 306 304 302 300 298 297 301 306 303
313 313 314 313 313 313 313 312 312 312 312 312 312 312 312 312 312 310 310 308 314 314 303 310 314 314 312 311 309 308 310 307 304 301 302 298 302 309 306 301 301 297 295 297 297 302 303
313 313 313 313 312 312 313 312 312 312 312 312 311 311 312 311 309 311 310 313 313 313 298 305 310 313 311 310 307 314 313 308 306 302 304 301 305 305 302 302 301 295 305 304 302 297 291
311 312 312 312 312 312 312 312 312 312 311 311 311 311 311 309 307 307 312 315 315 314 290 309 306 313 311 306 308 309 313 309 303 305 303 300 303 302 301 303 305 300 305 302 302 296 294
309 310 311 311 312 311 311 311 311 311 311 310 310 311 310 312 308 311 315 314 312 298 292 303 307 305 304 306 308 308 308 311 310 306 305 303 308 305 302 306 306 305 301 299 297 293 287
308 308 310 311 311 311 311 310 311 311 310 310 309 309 307 312 310 316 314 309 296 292 308 301 301 305 303 303 305 307 304 302 299 296 298 303 303 305 307 301 303 301 294 287 287 286 287
308 308 309 310 310 310 310 310 310 310 309 309 308 307 311 313 316 316 312 302 291 302 303 311 305 304 301 303 303 305 304 300 306 303 297 297 297 304 307 302 296 296 294 289 282 284 288
307 307 308 308 310 310 310 310 309 309 308 307 307 311 314 321 318 316 306 294 296 303 309 308 307 300 300 303 304 303 301 302 306 304 297 297 298 307 307 306 301 295 291 295 291 291 287
305 306 306 308 309 310 310 309 310 309 308 307 304 309 315 325 323 314 303 298 303 309 310 311 302 302 298 300 300 300 301 305 306 308 305 301 295 305 306 306 305 298 298 289 289 283 282
304 305 306 307 308 309 310 309 309 309 307 306 305 311 318 319 319 308 298 301 307 312 311 310 306 304 305 304 302 301 301 306 309 306 305 300 297 300 305 300 299 297 295 294 293 292 286
304 304 305 306 308 308 309 309 309 308 306 306 305 305 317 320 304 305 301 306 307 310 310 310 309 307 306 307 305 304 305 308 311 309 303 305 300 294 298 304 307 300 296 293 287 288 291
304 304 305 306 306 307 308 309 309 307 306 301 300 305 319 316 299 300 308 310 310 309 309 306 306 306 307 304 299 305 306 310 310 311 305 304 296 290 293 298 303 302 303 298 295 293 289
305 304 305 305 306 306 307 308 309 307 306 303 301 302 310 313 309 305 305 306 309 311 307 308 308 309 304 303 304 303 304 310 310 308 313 310 299 294 289 295 299 299 302 300 295 286 290
304 305 305 305 305 305 306 307 308 306 306 303 306 305 305 301 302 303 308 308 307 307 308 309 305 306 304 298 301 303 305 305 308 309 305 302 294 298 300 302 301 301 299 297 293 294 289
304 305 305 305 304 305 306 307 308 307 305 306 305 303 306 302 305 303 303 305 305 307 308 308 303 307 306 300 303 301 307 302 303 303 300 302 295 298 297 302 301 299 300 298 297 297 295
304 305 305 305 305 304 305 306 307 308 306 304 306 309 305 301 301 299 300 303 304 308 309 311 311 307 306 308 310 308 309 308 307 303 301 302 297 295 291 301 299 291 298 299 297 299 297
303 304 304 305 304 304 304 305 307 308 307 302 303 304 302 297 300 300 303 303 304 308 306 310 311 307 311 314 311 309 307 307 305 302 305 301 300 297 290 295 284 297 303 302 299 299 300
303 303 303 304 304 304 304 304 306 307 308 303 304 304 303 297 301 302 302 303 304 307 306 307 313 315 315 309 302 299 298 298 303 305 304 304 300 292 287 287 295 298 300 298 294 295 301
303 303 303 303 304 304 303 304 304 306 308 305 303 309 306 299 297 302 300 303 300 301 303 307 314 315 310 305 301 292 291 298 297 300 308 306 303 292 291 284 282 296 304 306 301 288 302
303 303 302 302 303 304 303 304 304 304 307 306 302 307 305 299 302 304 299 299 304 301 300 306 310 307 309 300 296 293 294 300 293 295 295 295 296 291 290 285 294 303 305 305 288 290 302
303 303 302 302 302 303 303 303 304 304 306 305 301 306 306 301 301 304 305 300 301 302 298 303 306 305 303 297 296 296 294 297 297 301 298 295 292 291 292 288 286 306 303 295 301 303 303
304 303 302 302 302 302 303 303 303 304 305 306 299 305 307 301 300 305 305 306 305 305 302 304 305 308 308 300 299 299 296 297 297 290 304 293 297 293 294 293 306 309 307 309 307 303 304
Wind_Speed
23 23 23 24 24 23 22 22 21 21 20 20 20 21 21 18 17 15 14 13 13 12 11 9 7 6 4 3 10 5 7 8 6 3 7 9 8 7 8 8 9 7 11 9 8 8 9
23 23 23 23 23 21 21 21 21 21 21 20 20 20 20 19 18 17 15 14 13 12 12 9 7 4 2 6 7 11 10 8 8 8 10 10 9 9 6 6 4 7 6 3 5 10 5
23 23 23 23 23 23 22 22 22 22 21 21 21 21 20 20 19 18 17 15 13 13 12 8 7 4 6 14 9 12 11 9 9 13 14 9 3 8 9 9 10 7 6 7 7 6 1
22 23 23 23 23 24 23 23 23 22 22 22 21 21 22 21 21 19 18 17 16 14 10 7 5 4 8 8 9 8 9 9 7 7 7 5 9 6 4 7 8 3 5 5 11 8 4
19 19 19 20 20 21 22 22 23 23 23 23 22 22 22 22 22 21 19 19 17 11 3 7 4 4 9 3 4 7 8 9 8 6 5 4 2 6 9 5 6 5 8 9 11 12 6
20 20 20 20 21 22 22 22 23 24 23 23 23 23 23 22 23 22 24 13 6 11 4 7 7 5 7 11 6 8 3 4 4 6 5 5 3 3 5 1 7 6 6 7 8 6 7
20 21 22 21 21 22 22 23 24 24 24 25 25 24 24 24 22 20 14 3 3 1 5 10 8 6 8 8 4 3 5 3 7 4 6 8 2 8 13 11 3 6 7 9 5 9 11
20 20 21 22 23 21 22 23 24 25 24 25 26 26 26 26 23 20 4 4 9 7 5 16 19 19 20 5 7 10 7 6 7 8 8 6 11 12 0 6 7 8 7 9 4 7 8
20 20 20 21 21 21 22 23 24 24 24 24 25 26 26 29 32 3 6 10 11 17 3 14 15 14 8 2 10 10 11 10 10 9 10 11 8 4 5 6 2 4 5 8 6 3 1
20 20 20 20 20 21 23 24 25 25 26 25 25 25 24 31 4 5 5 11 16 10 3 8 10 17 7 7 7 14 9 9 9 9 8 6 4 5 1 5 5 2 8 9 6 6 2
20 20 20 20 21 22 23 24 25 26 27 27 26 25 25 11 8 4 7 7 4 6 3 8 8 7 10 8 7 6 2 4 8 8 2 7 3 5 2 4 8 5 9 7 6 8 6
21 22 20 21 22 22 23 24 25 26 28 28 28 27 22 2 4 12 13 11 5 2 8 7 8 6 7 9 6 6 5 1 7 6 7 6 1 3 4 6 5 6 4 6 5 1 4
20 21 21 21 22 23 23 24 26 27 29 30 31 33 11 5 7 6 10 2 1 5 4 9 13 12 11 9 9 8 7 6 4 1 4 8 7 4 7 5 7 5 4 4 5 3 7
20 20 21 21 22 23 23 25 26 28 30 32 33 33 6 9 9 9 2 4 5 10 10 3 14 14 10 9 9 8 7 6 8 3 3 3 6 7 5 5 4 6 2 4 3 3 4
21 21 22 23 22 23 23 25 27 28 31 35 31 4 5 6 12 4 4 3 6 7 5 7 7 10 8 11 7 7 8 5 3 5 4 5 6 6 7 6 4 6 4 3 2 5 5
21 21 22 22 22 23 24 25 27 29 32 35 7 5 6 8 9 3 2 7 8 12 16 6 7 2 6 10 7 6 8 8 7 8 9 2 3 6 1 5 5 9 5 6 5 2 3
21 22 22 21 22 22 24 25 26 28 33 33 2 4 3 8 5 2 4 7 12 15 9 3 7 9 10 5 4 3 8 9 7 7 6 3 3 5 7 7 4 6 5 4 3 3 1
21 21 21 22 21 22 24 24 25 27 32 10 5 3 4 6 2 3 5 7 9 16 6 2 5 6 7 8 1 2 6 5 5 7 5 3 3 2 4 10 1 4 4 2 6 6 1
19 21 20 21 22 23 24 25 24 24 21 8 6 5 6 6 3 5 7 14 18 4 4 4 5 7 5 6 4 10 6 4 7 7 3 1 0 2 8 9 5 4 5 4 4 4 1
17 19 20 21 21 22 23 25 24 25 21 6 4 5 3 1 4 4 8 12 15 7 4 7 6 5 4 4 3 2 9 3 7 5 5 5 2 5 7 8 1 3 6 4 6 5 4
17 18 19 21 21 22 23 25 26 28 29 2 4 3 2 4 5 11 7 8 11 7 5 2 4 5 7 0 3 4 10 9 7 5 3 4 2 2 5 7 11 14 2 5 5 5 7
17 18 19 19 22 22 22 23 27 28 35 3 4 5 7 8 8 8 7 6 8 13 6 4 6 7 7 3 5 4 7 4 6 2 4 2 0 3 6 10 12 11 7 4 6 5 2
16 17 19 19 20 21 21 22 24 26 23 5 6 6 4 6 7 6 5 7 11 8 11 9 5 3 7 8 9 8 9 7 7 8 6 7 5 3 4 7 10 8 2 4 4 4 6
17 17 18 18 18 20 20 20 21 21 16 6 5 6 4 6 8 10 18 18 14 2 6 7 9 2 4 6 8 7 7 6 3 2 7 4 2 4 3 4 3 7 5 5 2 4 8
16 16 17 17 17 18 19 20 19 19 19 7 6 5 4 7 9 15 18 16 16 6 4 6 4 2 7 3 2 4 2 1 5 5 6 6 4 2 4 1 6 7 4 3 4 3 5
15 15 16 17 17 17 18 18 18 18 19 8 8 5 4 4 7 14 15 15 6 8 6 6 4 4 2 2 2 3 4 5 3 5 8 5 5 7 1 4 4 2 4 7 7 2 6
15 14 15 16 17 17 17 17 17 17 18 10 6 7 4 5 10 8 6 9 8 5 3 7 3 2 4 2 2 4 5 6 6 9 5 2 1 6 3 2 6 6 7 6 2 8 6
16 15 14 15 16 16 15 16 16 16 17 9 8 8 5 5 12 14 14 9 10 6 4 8 7 3 2 1 3 4 1 4 2 3 12 8 6 4 4 4 7 6 6 3 7 5 9
15 15 16 16 15 16 16 15 15 16 16 13 5 7 5 5 10 17 19 20 16 14 4 5 5 3 3 2 2 1 1 3 4 0 5 3 8 6 9 8 3 5 8 6 6 7 6
Wind_Direction
20 18 16 14 13 12 9 3 0 358 356 354 352 351 348 343 339 332 324 316 310 304 301 302 303 313 304 228 251 152 170 179 193 193 234 246 262 229 234 239 262 230 248 252 267 294 304
17 16 14 12 10 5 2 1 358 355 352 350 348 345 343 338 336 331 324 314 304 300 298 298 290 311 230 256 152 153 186 173 222 201 249 251 252 256 262 268 264 248 278 284 331 301 309
15 13 11 9 7 2 357 356 353 351 348 347 346 342 339 336 333 329 324 314 303 298 294 285 263 260 258 248 161 171 193 202 207 220 247 280 323 10 342 313 274 301 357 343 299 275 207
12 10 8 7 4 1 353 350 349 348 345 344 344 340 337 335 331 327 323 314 302 296 288 248 218 255 256 256 231 161 197 245 212 253 274 320 1 307 270 293 318 329 322 261 257 234 154
7 5 6 5 1 354 351 349 347 345 344 342 341 339 336 333 330 327 321 309 295 289 247 160 178 214 266 248 213 224 222 240 177 226 250 318 291 247 306 270 325 275 235 231 272 169 147
2 1 358 357 355 352 348 347 346 343 341 340 339 337 334 332 329 327 321 282 278 314 197 200 253 297 256 247 187 233 231 311 242 213 248 203 247 233 301 148 239 276 256 316 137 185 135
2 358 356 354 351 349 347 346 344 341 339 338 337 334 332 330 328 329 339 354 338 335 234 211 187 247 271 125 112 186 215 200 283 264 242 252 154 227 234 239 303 16 352 335 82 141 105
359 358 355 353 349 345 346 344 342 339 338 336 333 333 331 327 322 322 277 248 249 292 267 225 249 263 257 157 188 204 178 189 217 238 247 296 228 255 36 44 31 4 333 308 336 138 121
358 355 352 350 348 345 344 342 341 337 336 335 331 331 330 324 317 280 210 238 269 291 316 285 240 236 243 230 257 162 164 213 233 240 239 222 264 88 40 347 355 280 252 282 272 341 254
356 353 351 349 346 344 343 341 339 336 334 333 328 329 331 331 340 337 241 249 245 258 326 258 192 222 195 206 256 160 184 211 278 238 269 213 151 75 226 240 238 270 353 11 356 36 235
353 353 350 347 346 344 341 339 337 335 333 330 325 325 324 313 298 270 267 291 39 49 280 154 166 191 177 184 189 193 171 287 264 311 198 251 133 138 279 31 30 115 29 356 340 336 36
351 351 348 347 345 343 340 338 336 334 331 328 322 319 330 258 206 248 291 303 55 26 243 184 144 163 158 214 213 135 179 260 276 290 329 299 85 41 66 24 356 19 6 340 328 292 327
351 348 346 347 345 342 341 339 337 335 331 326 321 313 306 262 233 325 327 274 38 222 282 153 160 159 191 198 236 145 179 200 220 234 287 266 249 116 80 21 329 20 14 326 338 354 223
352 349 346 347 346 343 341 339 337 336 332 326 322 310 234 211 235 271 294 42 234 256 252 256 166 176 190 204 211 164 199 204 226 182 299 325 298 123 115 77 22 337 148 169 254 268 261
351 351 348 346 344 344 342 342 340 339 333 325 319 295 260 244 221 256 46 246 218 231 348 349 270 175 183 222 186 159 173 260 92 92 85 24 40 110 99 85 103 299 329 239 22 320 24
351 350 349 345 344 344 344 344 342 342 336 326 317 290 263 246 185 84 98 246 262 301 305 338 327 216 193 206 193 148 171 207 152 112 106 5 21 13 131 174 278 157 244 15 354 352 306
350 349 351 347 345 346 345 345 345 346 339 322 239 300 249 122 86 95 205 244 271 262 255 30 318 324 332 344 209 161 186 22 113 105 82 51 98 308 359 34 344 3 356 359 105 105 177
350 350 349 349 349 348 349 347 348 352 344 3 317 291 220 115 114 214 226 242 258 281 37 44 306 302 302 352 129 311 70 66 55 114 85 38 98 36 300 291 116 48 313 56 110 322 20
349 350 349 350 348 347 349 348 348 354 3 323 313 269 266 116 225 245 282 277 277 243 310 281 229 270 290 316 7 91 92 72 43 58 92 298 64 50 352 353 28 63 337 126 137 85 330
351 347 349 353 351 349 347 349 347 346 347 332 288 304 290 142 231 297 296 300 300 186 231 294 323 289 283 252 337 351 120 88 69 82 139 86 97 151 179 235 258 244 235 328 138 110 214
342 342 346 348 352 351 348 348 347 345 338 279 239 289 351 343 340 323 326 267 319 332 146 263 309 298 291 48 240 276 109 121 113 172 91 95 135 331 288 284 286 282 211 278 270 218 135
338 338 341 347 350 352 350 349 351 350 337 212 315 2 342 297 295 306 305 315 306 308 317 287 219 253 294 245 230 289 146 110 150 167 130 117 147 347 301 292 276 292 264 218 286 286 143
336 335 345 344 348 349 351 350 352 357 352 343 343 335 308 293 306 309 272 277 290 276 289 288 4 63 346 66 86 113 106 108 121 139 173 149 151 117 272 324 332 321 11 74 19 39 118
335 337 338 339 346 346 348 349 349 355 5 331 304 301 301 298 319 307 323 317 273 254 343 6 12 354 12 33 78 70 80 100 125 172 142 136 156 129 237 15 300 247 55 69 32 12 105
334 336 334 339 341 342 345 349 346 346 350 334 290 297 285 300 319 308 343 334 328 8 345 307 43 23 347 10 21 109 132 179 223 226 145 120 95 58 137 166 279 321 156 133 123 333 352
317 326 333 333 333 336 339 344 344 341 342 332 297 276 292 302 247 353 318 319 318 352 328 278 106 77 24 26 194 193 199 193 145 45 50 82 109 116 119 144 223 183 103 99 83 337 52
311 312 320 327 328 329 332 336 341 339 340 336 276 317 301 279 276 310 334 330 308 341 290 308 27 101 32 185 236 208 217 209 176 163 184 123 164 174 182 193 277 238 129 89 139 224 84
301 305 308 316 322 324 325 330 335 335 338 345 291 291 347 296 292 280 307 320 334 4 360 327 341 351 84 277 180 226 210 257 207 221 145 165 153 192 189 178 265 150 102 181 185 104 105
299 301 304 304 308 315 319 319 327 331 331 339 284 325 328 251 282 318 286 274 259 266 314 325 272 348 299 179 246 191 236 56 356 44 64 125 170 191 146 200 170 68 116 118 119 122 116